CW9879 Weather Reports


time (UTC)temp
F
wind
direction
speed
knots
gust
knots
rain 1hr
in
rain 24hr
in
rain mn
in
humidity
%
barometer
mb
20260506044506 71 242 0.9 3.5 0.00 0.00 0.00 58 1012.1
20260506043012 71 209 0.9 4.3 0.00 0.00 0.00 58 1012.0
20260506041517 71 157 0.0 6.1 0.00 0.00 0.00 57 1012.0
20260506040029 71 325 0.0 7.8 0.00 0.00 0.00 56 1012.2
20260506034525 72 146 0.9 5.2 0.00 0.00 0.00 56 1012.1
20260506033009 72 233 0.9 4.3 0.00 0.00 0.00 55 1012.1
20260506031512 72 41 0.0 5.2 0.00 0.00 0.00 55 1012.1
20260506030020 72 224 0.9 4.3 0.00 0.00 0.00 55 1012.1
20260506024521 72 140 0.9 4.3 0.00 0.00 0.00 54 1012.2
20260506023048 72 228 0.0 2.6 0.00 0.00 0.00 53 1012.3
20260506021512 72 125 0.0 2.6 0.00 0.00 0.00 51 1012.3
20260506020017 73 132 0.0 2.6 0.00 0.00 0.00 51 1012.3
20260506014521 73 251 0.9 3.5 0.00 0.00 0.00 49 1012.1
20260506013032 73 221 0.0 3.5 0.00 0.00 0.00 47 1011.9
20260506011525 74 117 0.0 2.6 0.00 0.00 0.00 47 1011.9
20260506010016 74 257 0.0 3.5 0.00 0.00 0.00 46 1011.6
20260506004525 75 81 0.0 2.6 0.00 0.00 0.00 44 1011.5
20260506003022 76 5 0.0 2.6 0.00 0.00 0.00 42 1011.3
20260506001524 76 171 0.0 2.6 0.00 0.00 0.00 41 1011.3
20260506000026 77 221 0.0 2.6 0.00 0.00 0.00 39 1011.1
20260505234515 77 128 0.0 3.5 0.00 0.00 0.00 38 1010.9
20260505233020 78 259 0.9 3.5 0.00 0.00 0.00 38 1010.9
20260505231535 79 221 0.0 3.5 0.00 0.00 0.00 37 1011.0
20260505230027 79 283 0.9 3.5 0.00 0.00 0.00 36 1011.0
20260505224528 80 150 0.0 3.5 0.00 0.00 0.00 34 1011.1
20260505223018 80 146 0.0 7.8 0.00 0.00 0.00 32 1011.2
20260505221504 81 234 0.9 4.3 0.00 0.00 0.00 31 1011.0
20260505220007 81 149 1.7 5.2 0.00 0.00 0.00 32 1010.7
20260505214510 81 213 0.9 4.3 0.00 0.00 0.00 34 1010.8
20260505213007 81 46 0.0 3.5 0.00 0.00 0.00 31 1010.7
20260505211508 82 130 0.9 6.1 0.00 0.00 0.00 29 1010.8
20260505210004 83 285 0.0 7.0 0.00 0.00 0.00 30 1010.7
20260505204511 83 298 0.9 6.1 0.00 0.00 0.00 29 1010.7
20260505203017 83 219 1.7 7.8 0.00 0.00 0.00 29 1010.6
20260505201503 84 24 0.9 6.1 0.00 0.00 0.00 28 1010.7
20260505200002 83 31 0.9 6.1 0.00 0.00 0.00 30 1010.8
20260505194507 83 282 1.7 5.2 0.00 0.00 0.00 31 1010.9
20260505193010 83 224 0.9 4.3 0.00 0.00 0.00 32 1011.1
20260505191517 83 296 0.9 5.2 0.00 0.00 0.00 31 1011.4
20260505190010 83 290 0.9 6.1 0.00 0.00 0.00 32 1011.7
20260505184508 84 198 1.7 5.2 0.00 0.00 0.00 31 1012.0
20260505183013 84 333 0.0 5.2 0.00 0.00 0.00 33 1012.2
20260505181513 84 142 2.6 6.1 0.00 0.00 0.00 31 1012.2
20260505180021 83 192 0.9 5.2 0.00 0.00 0.00 36 1012.2
20260505174507 83 282 0.9 6.1 0.00 0.00 0.00 34 1012.3
20260505173006 83 271 0.9 5.2 0.00 0.00 0.00 33 1012.4
20260505171511 82 221 1.7 9.6 0.00 0.00 0.00 35 1012.7
20260505170019 83 89 0.9 5.2 0.00 0.00 0.00 36 1012.8
20260505164520 83 147 0.9 7.0 0.00 0.00 0.00 39 1013.1
20260505163009 82 278 0.9 5.2 0.00 0.00 0.00 38 1013.3
20260505161508 81 158 0.0 7.0 0.00 0.00 0.00 41 1013.5
20260505153023 79 269 0.0 5.2 0.00 0.00 0.00 44 1013.9
20260505151507 78 101 0.9 3.5 0.00 0.00 0.00 47 1013.8
20260505124504 63 315 0.0 2.6 0.00 0.00 0.00 63 1014.0
20260505123003 62 194 0.0 2.6 0.00 0.00 0.00 64 1014.0
20260505121508 62 194 0.0 5.2 0.00 0.00 0.00 65 1014.0
20260505120006 61 226 0.9 2.6 0.00 0.00 0.00 66 1013.9
20260505114506 61 221 0.0 3.5 0.00 0.00 0.00 66 1013.7
20260505113016 60 107 0.0 4.3 0.00 0.00 0.00 66 1013.6
20260505111507 60 214 0.0 3.5 0.00 0.00 0.00 66 1013.5
20260505101513 60 143 0.0 3.5 0.00 0.00 0.00 64 1013.1
20260505100019 60 235 0.0 2.6 0.00 0.00 0.00 64 1013.0
20260505094510 61 203 0.0 2.6 0.00 0.00 0.00 64 1013.0
20260505093020 61 161 0.0 3.5 0.00 0.00 0.00 63 1013.0
20260505091511 61 110 0.0 6.1 0.00 0.00 0.00 63 1013.1
20260505090014 61 117 0.0 2.6 0.00 0.00 0.00 62 1013.0
20260505084512 61 217 0.0 3.5 0.00 0.00 0.00 62 1013.0
20260505083014 60 205 0.0 2.6 0.00 0.00 0.00 62 1012.8
20260505081512 60 140 0.0 2.6 0.00 0.00 0.00 63 1012.7
20260505080014 60 126 0.0 1.7 0.00 0.00 0.00 63 1012.7
20260505074514 60 219 0.0 1.7 0.00 0.00 0.00 64 1012.6
20260505073018 60 98 0.0 2.6 0.00 0.00 0.00 64 1012.6
20260505071518 59 190 0.0 1.7 0.00 0.00 0.00 65 1012.5
20260505070006 59 63 0.0 1.7 0.00 0.00 0.00 66 1012.4
20260505064510 59 240 0.0 1.7 0.00 0.00 0.00 67 1012.3
20260505063004 59 144 0.0 1.7 0.00 0.00 0.00 69 1012.4
20260505061507 59 163 0.0 1.7 0.00 0.00 0.00 69 1012.2
20260505060024 60 74 0.0 0.9 0.00 0.00 0.00 67 1012.2
20260505054516 60 76 0.0 1.7 0.00 0.00 0.00 65 1012.1
20260505053012 61 113 0.0 1.7 0.00 0.00 0.00 65 1012.2
20260505051507 61 218 0.0 0.9 0.00 0.00 0.00 65 1012.2